FENGYUN 1C DEB

Satellite information

Favourite Embed

Satellite Type and Status

DEBRISIN ORBIT

Key statistics

Satellite FENGYUN 1C DEB at a glance.

Uptime

9714

Days in orbit

Revolutions

≈ 13.9

Per day

Orbit

SSO

Sun Synchronous Orbit

Inclination

100.0

Latest

Satellite identification and parameters

Extended collection of information and parameters for FENGYUN 1C DEB.

Object identification

Identified? True

Debris? True

Object name: FENGYUN 1C DEB

International designator: 1999-025DZN

Object number (NORAD): 36692

Object ID (CCSDS): 36692

Country: PEOPLES REPUBLIC OF CHINA (PRC)

Current information (Y/N): Y

RCS size: SMALL

Orbital parameters

Period: 103.341 minutes

Inclination: 99.9932 deg

SMA: 7294.706 km

Apoapsis: 1001.085 km

Periapsis: 832.058 km

RAAN: 243.9547 deg

Eccentricy: 0.0115856

Argument of periapsis: 34.8482 deg

Mean anomaly: 326.0192 deg

Mean motion: 13.93448865 rev/day

Mean motion (dot): 0.00001272 rev/day2

B* drag term: 0.0009556 1/REarth

Two-line elements (TLE)

Creation date: Dec. 4, 2025, 9:06 p.m.

Reference frame: TEME

Reference center: EARTH

Epoch: Dec. 4, 2025, 12:56 p.m. UTC

TLE line 0: 0 FENGYUN 1C DEB

TLE line 1: 1 36692U 99025DZN 25338.53950113 .00001272 00000-0 95560-3 0 9999

TLE line 2: 2 36692 99.9932 243.9547 0115856 34.8482 326.0192 13.93448865596912

Live tracking on map

Real-time ground track for satellite FENGYUN 1C DEB.

In-orbit conjunctions

A list of the most updated potential collisions computed for object FENGYUN 1C DEB.

Target Orbit TCA Probability of collision Miss distance Type
CZ-6A DEB LEO 2024-11-03 11:21:21 0.0001034124 312.0 (m) DEBRIS
COSMOS 1791 LEO 2024-10-12 02:26:49 0.0001379169 828.0 (m) PAYLOAD

Associated space launch

Chinese polar orbiting meteorological satellite

FENGYUN 1C DEB was lifted into orbit during the mission ‘Long March 4B | Feng Yun 1C’, on board a Long March 4B space rocket.

The launch took place on May 10, 1999, 1:33 a.m. from Launch Complex 7.

For more information about the launch, click the button.

Launch to space Long March 4B | Feng Yun 1C
Long March 4B | Feng Yun 1C

Agency: N/A

Status: Launch Successful

Launch date: May 10, 1999, 1:33 a.m. UTC

Rocket: Long March 4B

Launch pad: Launch Complex 7

Location: Taiyuan Satellite Launch Center, People's Republic of China

...

Latest news about this satellite

There are no fresh news available about this satellite. Check back as we update our databases every day.


Newsletter sign-up

Weekly statistics, charts and insights to help you stay on top of the space industry.